"Pseudo-MPEC" for P12paqV

Created 2026 Aug 16 16:35:12 UT using Find_Orb

Click here for an explanation of pseudo-MPECs

 
 Astrometry: 
     P12paqV*0C2026 08 11.37534020 49 47.477-46 30 46.35   ~8BB5 20.21wXNEOCPF51
     P12paqV 0C2026 08 11.39097220 49 30.481-46 30 24.46   ~8BB5 20.52wXNEOCPF51
     P12paqV 0C2026 08 11.39877920 49 22.009-46 30 12.30   ~8BB5 20.35wXNEOCPF51

Station data:
(F51) Pan-STARRS 1, Haleakala  (N20.707234 W156.255910)  US/Hawaii.
   Observers J. Herman, T. Lowe, P. Minguez, A. Schultz, I. Smith. Measurers
   K. Chambers, T. de Boer, J. Fairlamb, H. Gao, M. Huber, C.-C. Lin, E.
   Magnier, Y. Ramanjooloo, R. Wainscoat, R. Weryk. 1.8-m Ritchey-Chrétien +
   CCD.

Orbital elements:  P12paqV
   Perihelion 2026 Jun 19.069718 +/- 79.1 TT =  1:40:23.6 (JD 2461210.569718)
Epoch 2026 Aug 11.0 TT = JDT 2461263.5   Earth MOID: 0.0817   Ve: 0.0110
M  69.558715492 +/- 80              Me: 0.0354   Ma: 0.0932      AutoNEOCP
n   1.314157292 +/- 0.709           Peri.   20.616388 +/- 70
a   0.825476060 +/- 0.297           Node   120.970797 +/- 110
e   0.98788834 +/- 0.216            Incl.   20.161015 +/- 53
P   0.750/273.935d         H 21.69  G  0.15   U 12.5  SR
q 0.009997881 +/- 0.388    Q 1.640954240 +/- 11.5         (J2000 ecliptic)
From 3 observations 2026 Aug. 11 (33.8 min); mean residual 0".24
Residuals in arcseconds: 
260811 F51  .01+  .16+    260811 F51  .02-  .47-    260811 F51  .01+  .31+    

Ephemerides (geocentric):
Date (UTC) HH   RA             Dec           delta  r     elong  mag " sig PA
---- --------  ------------   ------------  ------ ------ -----  --- --------
2026 08 16 17  19 42 27.869   -43 25 43.49  .32612 1.2814 140.6 21.1  28d  51
2026 08 16 18  19 42 06.471   -43 24 11.09  .32683 1.2818 140.5 21.1  28d  51
2026 08 16 19  19 41 45.191   -43 22 38.77  .32754 1.2822 140.5 21.1  28d  51
2026 08 16 20  19 41 24.028   -43 21 06.54  .32825 1.2826 140.4 21.1  28d  51
2026 08 16 21  19 41 02.982   -43 19 34.40  .32896 1.2830 140.3 21.1  28d  51
2026 08 16 22  19 40 42.052   -43 18 02.36  .32967 1.2834 140.3 21.1  28d  51
2026 08 16 23  19 40 21.237   -43 16 30.41  .33038 1.2839 140.2 21.1  28d  51
2026 08 17 00  19 40 00.536   -43 14 58.56  .33109 1.2843 140.1 21.1  28d  51
2026 08 17 01  19 39 39.949   -43 13 26.81  .33181 1.2847 140.1 21.1  28d  51
2026 08 17 02  19 39 19.475   -43 11 55.15  .33252 1.2851 140.0 21.2  28d  51
2026 08 17 03  19 38 59.112   -43 10 23.61  .33323 1.2855 139.9 21.2  28d  51
2026 08 17 04  19 38 38.862   -43 08 52.16  .33395 1.2859 139.9 21.2  28d  51
2026 08 17 05  19 38 18.722   -43 07 20.83  .33466 1.2863 139.8 21.2  29d  51
2026 08 17 06  19 37 58.692   -43 05 49.60  .33538 1.2867 139.7 21.2  29d  51
2026 08 17 07  19 37 38.772   -43 04 18.48  .33610 1.2872 139.7 21.2  29d  51
2026 08 17 08  19 37 18.960   -43 02 47.47  .33681 1.2876 139.6 21.2  29d  51
2026 08 17 09  19 36 59.256   -43 01 16.57  .33753 1.2880 139.5 21.2  29d  51
2026 08 17 10  19 36 39.660   -42 59 45.79  .33825 1.2884 139.5 21.2  29d  51
2026 08 17 11  19 36 20.170   -42 58 15.12  .33897 1.2888 139.4 21.2  29d  51
2026 08 17 12  19 36 00.786   -42 56 44.57  .33969 1.2892 139.3 21.2  29d  51
2026 08 17 13  19 35 41.508   -42 55 14.14  .34041 1.2896 139.3 21.2  29d  51
2026 08 17 14  19 35 22.334   -42 53 43.83  .34113 1.2900 139.2 21.2  29d  51
2026 08 17 15  19 35 03.264   -42 52 13.64  .34185 1.2904 139.1 21.2  29d  51
2026 08 17 16  19 34 44.297   -42 50 43.58  .34257 1.2909 139.1 21.2  29d  51
2026 08 17 17  19 34 25.433   -42 49 13.64  .34329 1.2913 139.0 21.2  29d  51
2026 08 17 18  19 34 06.671   -42 47 43.82  .34401 1.2917 138.9 21.3  29d  51
2026 08 17 19  19 33 48.011   -42 46 14.13  .34473 1.2921 138.9 21.3  29d  51
2026 08 17 20  19 33 29.451   -42 44 44.57  .34546 1.2925 138.8 21.3  29d  51
2026 08 17 21  19 33 10.991   -42 43 15.13  .34618 1.2929 138.7 21.3  29d  51
2026 08 17 22  19 32 52.631   -42 41 45.83  .34691 1.2933 138.7 21.3  29d  51
2026 08 17 23  19 32 34.369   -42 40 16.66  .34763 1.2937 138.6 21.3  29d  51
2026 08 18 00  19 32 16.206   -42 38 47.62  .34836 1.2941 138.5 21.3  29d  51
2026 08 18 01  19 31 58.141   -42 37 18.71  .34908 1.2945 138.5 21.3  30d  51
2026 08 18 02  19 31 40.172   -42 35 49.94  .34981 1.2949 138.4 21.3  30d  51
2026 08 18 03  19 31 22.300   -42 34 21.31  .35054 1.2953 138.3 21.3  30d  51
2026 08 18 04  19 31 04.524   -42 32 52.81  .35126 1.2957 138.3 21.3  30d  51
2026 08 18 05  19 30 46.842   -42 31 24.45  .35199 1.2962 138.2 21.3  30d  51
2026 08 18 06  19 30 29.256   -42 29 56.22  .35272 1.2966 138.2 21.3  30d  51
2026 08 18 07  19 30 11.763   -42 28 28.14  .35345 1.2970 138.1 21.3  30d  51
2026 08 18 08  19 29 54.364   -42 27 00.20  .35418 1.2974 138.0 21.3  30d  51
2026 08 18 09  19 29 37.058   -42 25 32.39  .35491 1.2978 138.0 21.3  30d  51
2026 08 18 10  19 29 19.844   -42 24 04.74  .35564 1.2982 137.9 21.4  30d  51
2026 08 18 11  19 29 02.722   -42 22 37.22  .35637 1.2986 137.8 21.4  30d  51
2026 08 18 12  19 28 45.691   -42 21 09.85  .35710 1.2990 137.8 21.4  30d  51
2026 08 18 13  19 28 28.750   -42 19 42.62  .35783 1.2994 137.7 21.4  30d  51
2026 08 18 14  19 28 11.900   -42 18 15.54  .35856 1.2998 137.6 21.4  30d  51
2026 08 18 15  19 27 55.139   -42 16 48.60  .35930 1.3002 137.6 21.4  30d  51
2026 08 18 16  19 27 38.467   -42 15 21.81  .36003 1.3006 137.5 21.4  30d  51